FW8436 Weather Reports


time (UTC)temp
C
wind
direction
speed
KPH
gust
KPH
rain 1hr
cm
rain 24hr
cm
rain mn
cm
humidity
%
barometer
mb
20260504100532 4 0 0.0 1.6 0.00 0.00 0.00 87 1017.1
20260504081537 4 0 0.0 3.2 0.00 0.00 0.00 88 1017.2
20260504081032 4 0 0.0 3.2 0.00 0.00 0.00 88 1017.1
20260504080529 3 0 0.0 3.2 0.00 0.00 0.00 89 1017.2
20260504050530 3 360 0.0 3.2 0.00 0.00 0.00 87 1017.8
20260504045533 4 0 0.0 1.6 0.00 0.00 0.00 88 1017.7
20260504045033 4 0 0.0 3.2 0.00 0.00 0.00 88 1017.8
20260504044539 4 360 0.0 3.2 0.00 0.00 0.00 89 1017.7
20260504044033 4 360 1.6 3.2 0.00 0.00 0.00 89 1017.7
20260504043535 4 0 0.0 3.2 0.00 0.00 0.00 89 1017.5
20260504043042 4 360 0.0 1.6 0.00 0.00 0.00 89 1017.6
20260504042536 3 0 0.0 0.0 0.00 0.00 0.00 89 1017.5
20260504042032 3 0 0.0 0.0 0.00 0.00 0.00 89 1017.4
20260504041546 3 0 0.0 0.0 0.00 0.00 0.00 89 1017.4
20260504041029 3 0 0.0 0.0 0.00 0.00 0.00 89 1017.5
20260504040531 3 0 0.0 1.6 0.00 0.00 0.00 89 1017.5
20260504040040 3 0 0.0 3.2 0.00 0.00 0.00 89 1017.6
20260504035533 3 0 0.0 4.8 0.00 0.00 0.00 89 1017.5
20260504035032 3 360 1.6 4.8 0.00 0.00 0.00 89 1017.4
20260504034537 3 360 1.6 3.2 0.00 0.00 0.00 87 1017.4
20260504034032 3 360 0.0 3.2 0.00 0.00 0.00 87 1017.5
20260504033529 3 0 0.0 3.2 0.00 0.00 0.00 88 1017.5
20260504033048 3 0 1.6 3.2 0.00 0.00 0.00 88 1017.4
20260504032529 3 360 0.0 3.2 0.00 0.00 0.00 88 1017.4
20260504032032 3 360 0.0 0.0 0.00 0.00 0.00 89 1017.4
20260504031546 3 0 0.0 1.6 0.00 0.00 0.00 89 1017.6
20260504031035 3 0 0.0 1.6 0.00 0.00 0.00 89 1017.6
20260504030533 3 0 0.0 1.6 0.00 0.00 0.00 89 1017.5
20260504030043 3 0 0.0 3.2 0.00 0.00 0.00 88 1017.5
20260504025533 2 0 0.0 4.8 0.00 0.00 0.00 88 1017.6
20260504025033 2 360 1.6 4.8 0.00 0.00 0.00 87 1017.5
20260504024539 2 0 0.0 3.2 0.00 0.00 0.00 85 1017.6
20260504024030 2 0 1.6 4.8 0.00 0.00 0.00 85 1017.5
20260504023530 2 0 1.6 4.8 0.00 0.00 0.00 83 1017.5
20260504023040 3 360 1.6 4.8 0.00 0.00 0.00 82 1017.5
20260504022531 3 0 0.0 4.8 0.00 0.00 0.00 82 1017.4
20260504022030 3 360 0.0 4.8 0.00 0.00 0.00 82 1017.5
20260504021538 3 360 0.0 3.2 0.00 0.00 0.00 82 1017.4
20260504021030 3 0 0.0 4.8 0.00 0.00 0.00 82 1017.5
20260504020529 3 360 0.0 4.8 0.00 0.00 0.00 83 1017.4
20260504020043 3 360 1.6 4.8 0.00 0.00 0.00 82 1017.3
20260504015529 3 360 3.2 4.8 0.00 0.00 0.00 81 1017.4
20260504015032 4 360 1.6 3.2 0.00 0.00 0.00 78 1017.4
20260504014542 5 0 0.0 3.2 0.00 0.00 0.00 76 1017.3
20260504014031 5 0 0.0 3.2 0.00 0.00 0.00 76 1017.0
20260504013535 5 0 0.0 3.2 0.00 0.00 0.00 75 1016.8
20260504013042 5 0 0.0 3.2 0.00 0.00 0.00 75 1016.7
20260504012533 5 0 0.0 3.2 0.00 0.00 0.00 76 1016.8
20260504012033 5 360 0.0 4.8 0.00 0.00 0.00 77 1016.9
20260504011541 5 360 0.0 4.8 0.00 0.00 0.00 78 1017.0
20260504011033 5 360 3.2 4.8 0.00 0.00 0.00 79 1016.8
20260504010535 4 360 3.2 4.8 0.00 0.00 0.00 81 1016.7
20260504010037 4 360 1.6 4.8 0.00 0.00 0.00 80 1016.7
20260504005530 5 360 3.2 4.8 0.00 0.00 0.00 78 1016.6
20260504005035 5 266 0.0 4.8 0.00 0.00 0.00 75 1016.4
20260504004545 6 266 0.0 4.8 0.00 0.00 0.00 74 1016.4
20260504004030 5 266 1.6 3.2 0.00 0.00 0.00 76 1016.2
20260504003533 6 0 0.0 4.8 0.00 0.00 0.00 73 1016.2
20260504003036 6 266 1.6 6.4 0.00 0.00 0.00 70 1016.2
20260504002534 7 265 1.6 6.4 0.00 0.00 0.00 65 1016.2
20260504002033 8 360 3.2 6.4 0.00 0.00 0.00 62 1016.1
20260504001549 8 267 3.2 6.4 0.00 0.00 0.00 60 1016.1
20260504001033 10 268 3.2 4.8 0.00 0.00 0.00 56 1016.1
20260504000533 11 0 0.0 6.4 0.00 0.00 0.00 49 1016.0
20260504000039 12 0 1.6 6.4 0.00 0.00 0.00 40 1016.0
20260503235536 12 271 1.6 8.0 0.00 0.00 0.00 41 1015.9
20260503235033 13 273 1.6 8.0 0.00 0.00 0.00 35 1015.9
20260503234600 14 338 1.6 8.0 0.00 0.00 0.00 30 1016.0
20260503234030 15 208 0.0 8.0 0.00 0.00 0.00 30 1016.0
20260503233530 15 194 3.2 8.0 0.00 0.00 0.00 31 1016.0
20260503233049 15 5 0.0 6.4 0.00 0.00 0.00 33 1016.0
20260503232530 16 0 1.6 8.0 0.00 0.00 0.00 31 1016.0
20260503232033 16 313 1.6 8.0 0.00 0.00 0.00 30 1016.0
20260503231545 16 318 1.6 8.0 0.00 0.00 0.00 30 1016.0
20260503231029 16 0 0.0 12.9 0.00 0.00 0.00 28 1016.0
20260503230535 16 0 3.2 12.9 0.00 0.00 0.00 29 1016.0
20260503230044 16 239 1.6 8.0 0.00 0.00 0.00 31 1015.9
20260503225530 16 317 1.6 8.0 0.00 0.00 0.00 30 1015.9
20260503225033 16 327 3.2 8.0 0.00 0.00 0.00 32 1015.9
20260503224540 16 237 1.6 8.0 0.00 0.00 0.00 27 1015.8
20260503224030 17 234 3.2 8.0 0.00 0.00 0.00 29 1015.8
20260503223533 17 0 1.6 11.3 0.00 0.00 0.00 28 1016.0
20260503223041 17 29 1.6 11.3 0.00 0.00 0.00 28 1015.9
20260503222529 17 311 3.2 9.7 0.00 0.00 0.00 27 1015.9
20260503222029 17 63 3.2 9.7 0.00 0.00 0.00 28 1015.9
20260503221543 17 0 1.6 8.0 0.00 0.00 0.00 30 1015.9
20260503221030 17 222 3.2 8.0 0.00 0.00 0.00 26 1016.0
20260503220530 17 231 0.0 8.0 0.00 0.00 0.00 26 1016.0
20260503220039 17 44 3.2 8.0 0.00 0.00 0.00 29 1016.0
20260503215529 18 311 0.0 14.5 0.00 0.00 0.00 25 1016.0
20260503215033 18 0 1.6 14.5 0.00 0.00 0.00 29 1016.0
20260503214545 17 70 3.2 14.5 0.00 0.00 0.00 30 1016.2
20260503214033 17 46 1.6 14.5 0.00 0.00 0.00 27 1016.2
20260503213531 17 11 3.2 14.5 0.00 0.00 0.00 27 1016.2
20260503213045 17 5 4.8 14.5 0.00 0.00 0.00 25 1016.2
20260503212531 17 310 3.2 16.1 0.00 0.00 0.00 27 1016.2
20260503212032 18 44 4.8 16.1 0.00 0.00 0.00 27 1016.2
20260503211544 17 149 3.2 16.1 0.00 0.00 0.00 29 1016.2
20260503211033 16 94 4.8 16.1 0.00 0.00 0.00 26 1016.3
20260503210533 17 273 3.2 11.3 0.00 0.00 0.00 25 1016.4
20260503210039 17 54 3.2 16.1 0.00 0.00 0.00 26 1016.3
20260503205535 17 46 3.2 16.1 0.00 0.00 0.00 27 1016.4
20260503205030 16 283 6.4 16.1 0.00 0.00 0.00 26 1016.6
20260503204542 16 216 3.2 14.5 0.00 0.00 0.00 28 1016.6
20260503204035 17 224 3.2 11.3 0.00 0.00 0.00 25 1016.6
20260503203532 16 277 3.2 14.5 0.00 0.00 0.00 26 1016.7
20260503203054 16 0 1.6 19.3 0.00 0.00 0.00 33 1016.7
20260503202533 16 284 8.0 19.3 0.00 0.00 0.00 27 1016.9
20260503202035 16 312 3.2 12.9 0.00 0.00 0.00 28 1016.8
20260503201538 17 56 1.6 8.0 0.00 0.00 0.00 29 1016.9
20260503201029 16 0 3.2 12.9 0.00 0.00 0.00 29 1017.0
20260503200529 16 188 3.2 16.1 0.00 0.00 0.00 29 1017.2
20260503200037 16 298 8.0 22.5 0.00 0.00 0.00 28 1017.3
20260503195530 16 327 6.4 22.5 0.00 0.00 0.00 29 1017.4
20260503195029 16 304 4.8 14.5 0.00 0.00 0.00 27 1017.3
20260503194540 16 302 4.8 12.9 0.00 0.00 0.00 33 1017.3
20260503194032 15 278 4.8 16.1 0.00 0.00 0.00 28 1017.5
20260503193534 16 309 3.2 16.1 0.00 0.00 0.00 29 1017.6
20260503193043 16 312 6.4 16.1 0.00 0.00 0.00 30 1017.7
20260503192533 15 70 6.4 17.7 0.00 0.00 0.00 31 1017.7
20260503192029 15 232 3.2 20.9 0.00 0.00 0.00 31 1017.8
20260503191537 15 227 9.7 20.9 0.00 0.00 0.00 29 1018.0
20260503191030 15 218 3.2 19.3 0.00 0.00 0.00 31 1018.0
20260503190530 15 327 4.8 19.3 0.00 0.00 0.00 32 1018.1
20260503190047 15 248 3.2 16.1 0.00 0.00 0.00 30 1018.0
20260503185530 15 210 4.8 22.5 0.00 0.00 0.00 31 1018.1
20260503185029 15 60 3.2 22.5 0.00 0.00 0.00 34 1018.1
20260503184546 15 68 4.8 22.5 0.00 0.00 0.00 31 1018.2
20260503184031 15 160 8.0 14.5 0.00 0.00 0.00 31 1018.1
20260503183529 15 99 3.2 20.9 0.00 0.00 0.00 32 1018.1
20260503183036 15 128 8.0 20.9 0.00 0.00 0.00 31 1018.2
20260503182529 15 267 3.2 16.1 0.00 0.00 0.00 34 1018.4
20260503182032 15 252 4.8 16.1 0.00 0.00 0.00 31 1018.4
20260503181542 15 88 3.2 12.9 0.00 0.00 0.00 33 1018.6
20260503181033 15 360 4.8 9.7 0.00 0.00 0.00 38 1018.6
20260503180533 14 53 3.2 19.3 0.00 0.00 0.00 32 1018.7
20260503180050 13 87 6.4 19.3 0.00 0.00 0.00 33 1018.8
20260503175532 13 233 6.4 19.3 0.00 0.00 0.00 31 1018.8
20260503175031 15 57 4.8 19.3 0.00 0.00 0.00 33 1018.9
20260503174538 13 94 3.2 17.7 0.00 0.00 0.00 33 1019.0
20260503174030 14 170 3.2 12.9 0.00 0.00 0.00 32 1019.1
20260503173530 13 191 3.2 22.5 0.00 0.00 0.00 32 1019.0
20260503173047 13 219 6.4 22.5 0.00 0.00 0.00 38 1019.0
20260503172529 12 302 4.8 12.9 0.00 0.00 0.00 34 1019.1
20260503172032 13 300 1.6 11.3 0.00 0.00 0.00 31 1019.1
20260503171548 12 292 4.8 14.5 0.00 0.00 0.00 34 1019.3
20260503171031 12 317 4.8 16.1 0.00 0.00 0.00 32 1019.3
20260503170533 13 91 3.2 16.1 0.00 0.00 0.00 35 1019.5
20260503150533 10 65 4.8 16.1 0.00 0.00 0.00 42 1020.4
20260503131029 7 81 3.2 16.1 0.00 0.00 0.00 50 1020.6
20260503130530 7 137 3.2 19.3 0.00 0.00 0.00 52 1020.5
20260503110531 -1 0 0.0 4.8 0.00 0.00 0.00 89 1019.1